Flag for Turkey Weather past 2 weeks in Ankara, Turkey

Now
70 °F

Partly sunny.


Feels Like: 70 °F
Forecast: 51 / 79 °F
Wind: 2 mph from North

Location: Ankara / Esenboga

Current Time: May 26, 2015 at 11:24:50 AM

Latest Report: May 26, 2015 at 10:50 AM


Visibility: N/A

Pressure: 29.89 "Hg

Humidity: 50%

Dew point: 50 °F

Location of AnkaraLocation

Historic Weather in Ankara — Graph

°F

Ankara temperature yesterday

Maximum temperature yesterday: 79 °F (at 12:20 PM)
Minimum temperature yesterday: 54 °F (at 5:50 AM)
Average temperature yesterday: 64 °F

Past Weeks' High & Low Weather Summary

 TemperatureHumidityPressure
High86 °F (May 20, 1:50 PM)94% (May 19, 5:50 AM)30.24 "Hg (May 19, 5:50 AM)
Low39 °F (May 14, 5:50 AM)13% (May 20, 3:20 PM)29.77 "Hg (May 20, 6:20 PM)
Average63 °F54%29.99 "Hg
* Reported May 11 9:20 AM — May 26 9:50 AM, Ankara, Weather by CustomWeather, © 2015

Note: Actual official high and low records may vary slightly from our data, if they occured in-between our weather recording intervals... More about our weather records

Advertising

Ankara weather history for previous 24 hours

 ConditionsComfort  
Time TempWeatherWind HumidityBarometerVisibility
9:50 AM
Tue, May 26
66 °FPartly sunny.3 mph60%29.89 "HgN/A
9:20 AM64 °FSunny.2 mph60%29.89 "Hg10 mi
8:50 AM63 °FSunny.2 mph64%29.89 "Hg10 mi
8:20 AM59 °FSunny.3 mph77%29.89 "Hg10 mi
7:50 AM59 °FSunny.2 mph72%29.89 "Hg10 mi
7:20 AM55 °FSunny.2 mph82%29.89 "Hg10 mi
6:50 AM52 °FPassing clouds.3 mph94%29.89 "HgN/A
6:20 AM50 °FClear.2 mph94%29.89 "Hg10 mi
5:50 AM48 °FClear.2 mph94%29.86 "Hg10 mi
5:20 AM52 °FClear.3 mph88%29.86 "Hg10 mi
4:50 AM50 °FClear.2 mph94%29.86 "Hg10 mi
4:20 AM52 °FClear.2 mph94%29.86 "Hg10 mi
3:50 AM52 °FPassing clouds.2 mph94%29.86 "HgN/A
3:20 AM52 °FPassing clouds.3 mph94%29.86 "HgN/A
2:50 AM52 °FPassing clouds.3 mph94%29.86 "HgN/A
2:20 AM54 °FPassing clouds.2 mph88%29.86 "HgN/A
1:50 AM55 °FPassing clouds.5 mph82%29.86 "HgN/A
1:20 AM54 °FPassing clouds.7 mph88%29.86 "HgN/A
12:50 AM54 °FPassing clouds.5 mph88%29.86 "HgN/A
12:20 AM54 °FPassing clouds.3 mph94%29.86 "HgN/A
11:50 PM
Mon, May 25
55 °FPassing clouds.3 mph88%29.86 "HgN/A
11:20 PM55 °FPassing clouds.5 mph88%29.86 "HgN/A
10:50 PM55 °FPassing clouds.6 mph82%29.86 "HgN/A
10:20 PM57 °FPassing clouds.13 mph77%29.86 "HgN/A
9:50 PM57 °FThunderstorms. Passing clouds.15 mph77%29.89 "HgN/A
9:20 PM59 °FThunderstorms. Partly cloudy.17 mph72%29.92 "HgN/A
8:50 PM61 °FThunderstorms. Broken clouds.15 mph68%29.92 "HgN/A
8:20 PM64 °FThunderstorms. Broken clouds.12 mph56%29.89 "HgN/A
7:50 PM64 °FThunderstorms. Partly sunny.7 mph56%29.86 "HgN/A
7:20 PM64 °FPartly sunny.7 mph68%29.86 "HgN/A
6:50 PM64 °FPartly sunny.2 mph68%29.83 "HgN/A
6:20 PM63 °FPartly sunny.8 mph73%29.83 "HgN/A
5:50 PM63 °FPartly sunny.12 mph73%29.83 "HgN/A
5:20 PM64 °FPartly sunny.5 mph68%29.86 "HgN/A
4:50 PM66 °FBroken clouds.10 mph56%29.86 "HgN/A
4:20 PM64 °FThunderstorms. Scattered clouds.13 mph64%29.86 "HgN/A
3:50 PM66 °FThunderstorms. Broken clouds.14 mph64%29.86 "HgN/A
3:20 PM68 °FThunderstorms. Broken clouds.10 mph53%29.86 "HgN/A
2:50 PM68 °FThunderstorms. Partly sunny.13 mph56%29.86 "HgN/A
2:20 PM68 °FThunderstorms. Partly sunny.13 mph53%29.86 "HgN/A
1:50 PM73 °FThunderstorms. Partly sunny.13 mph44%29.86 "HgN/A
1:20 PM75 °FPartly sunny.12 mph41%29.86 "HgN/A
12:50 PM77 °FScattered clouds.8 mph36%29.86 "HgN/A
12:20 PM79 °FScattered clouds.3 mph37%29.86 "HgN/A
11:50 AM75 °FScattered clouds.3 mph44%29.89 "HgN/A
11:20 AM75 °FScattered clouds.5 mph41%29.89 "HgN/A
Weather by CustomWeather, © 2015

See weather overviewHow to use our weather pages